PreDB.eu

music predb - trance, techno, house, hardstyle, hardcore
updated: 2021-10-23 23:08:27
JAN 3 GB 145 RFEB 3 GB 215 RMAR 4 GB 208 RAPR 6 GB 249 RMAY 6 GB 215 RJUN 7 GB 227 RJUL 4 GB 213 RAUG 5 GB 233 RSEP 5 GB 256 R
2021-10-22 13:33:01Hardstyle56Zyon_-_Crashing_Down-(MYM034)-SINGLE-WEB-2021-SRG
2021-10-22 13:32:56Hardstyle510Spitfire_And_Tigaiko_-_Think_About_It-(MINUS139)-SINGLE-WEB-2021-SRG
2021-10-22 13:32:47Hardstyle56Redhot_-_High_On_You-(SGR027E)-SINGLE-WEB-2021-SRG
2021-10-22 13:32:41Hardstyle59D-Noizer_-_Never_Give_Up-(SSR035)-SINGLE-WEB-2021-SRG
2021-10-22 13:32:25Hardstyle57Deadalus_-_One_With_The_Bass-(ID006)-SINGLE-WEB-2021-SRG
2021-10-22 13:32:18Hardstyle59Cryex_-_Faded-(APEX036)-SINGLE-WEB-2021-SRG
2021-10-22 13:32:12Hardstyle58Bloodfire_And_Realiner_-_FTM-(UPR109)-SINGLE-WEB-2021-SRG
2021-10-22 13:00:49Hardstyle58ReSpectrum_-_Cant_Stop-(BABY091)-SINGLE-WEB-2021-SRG_iNT
2021-10-22 13:00:27Hardstyle86791VA_-_Brennan_Heart_20_Years-(IAHD003)-WEB-2021-SRG_iNT
2021-10-22 09:01:05Hardstyle58Phyric_-_One_Family-(SSL235)-SINGLE-WEB-2021-FMC
2021-10-21 16:01:09Hardstyle510Zatox_-_Kickmaster-(DWX1072)-SINGLE-WEB-2021-SRG
2021-10-21 16:01:01Hardstyle510Warface_And_Carola_-_All_We_Have_Is_Now_(Official_Live_For_This_2021_Anthem)-(EOL160)-SINGLE-WEB-2021-SRG
2021-10-21 16:00:52Hardstyle1149VA_-_Gearbox_Presents_Full_Throttle-(GBDA012)-WEB-2021-SRG
2021-10-21 16:00:44Hardstyle57Hayway_-_Persistance-(GBE131)-SINGLE-WEB-2021-SRG
2021-10-21 16:00:39Hardstyle57Hardwaxx_-_Heartbeat-(KNR029)-SINGLE-WEB-2021-SRG
2021-10-21 16:00:33Hardstyle58Asterz_-_Death_Of_Me-(SSR034)-SINGLE-WEB-2021-SRG
2021-10-21 15:39:03Hardstyle616MI37_And_JNS_-_Flash-WEB-2021-SRG_iNT
2021-10-21 15:38:57Hardstyle621Clockartz_-_Valley_Of_Insanity-(IAH062)-WEB-2021-SRG_iNT
2021-10-20 16:25:13Hardstyle56Retryx_-_Move_Like_That-(SSR033)-SINGLE-WEB-2021-SRG
2021-10-20 16:25:01Hardstyle511PRDX_-_Phoenix-(DWX1076)-SINGLE-WEB-2021-SRG
2021-10-20 16:24:54Hardstyle59Ecstatic_-_Everybody_Knows_It-(DWX1075)-SINGLE-WEB-2021-SRG
2021-10-20 16:24:47Hardstyle57AZGVRD_-_U_Got_Me-(AREC071E)-SINGLE-WEB-2021-SRG
2021-10-20 14:11:34Hardstyle1051VA_-_Harderclass_EP_Part_1-(NEXT112PRO)-WEB-2021-SRG_iNT
2021-10-19 15:11:40Hardstyle59So_Juice_And_Mutilator_Ft._Sovereign_King_-_Full_Throttle_(Official_Anthem)-(GBD331)-SINGLE-WEB-2021-SRG
2021-10-19 15:11:32Hardstyle510Serzo_-_Feelin-(DWX1074)-SINGLE-WEB-2021-SRG
2021-10-19 15:11:26Hardstyle58Refract_-_Inside_Of_Me-(SCARB051)-SINGLE-WEB-2021-SRG
2021-10-19 15:11:18Hardstyle58Kinetic_-_Body-(SSR031)-SINGLE-WEB-2021-SRG
2021-10-19 15:11:11Hardstyle57JGSW_-_Falling-(ETY009)-SINGLE-WEB-2021-SRG
2021-10-19 15:11:03Hardstyle59Exproz_-_Gods-(GBR129)-SINGLE-WEB-2021-SRG
2021-10-19 15:10:56Hardstyle56Ephesto_-_My_Turn-(SSR032)-SINGLE-WEB-2021-SRG
2021-10-19 15:10:46Hardstyle59Deviouz_-_Disappear-(UPR108)-SINGLE-WEB-2021-SRG
2021-10-19 15:10:39Hardstyle58Araysen_-_Next_To_Me-(PRSPX085)-SINGLE-WEB-2021-SRG
2021-10-19 05:02:45Hardstyle512D-Block_And_S-Te-Fan_-_Losing_Control-(EVO079)-SINGLE-WEB-2021-FMC
2021-10-18 14:00:33Hardstyle617Thundernoize_-_Fathers_Of_Creation-(CM022)-WEB-2021-SRG_iNT
2021-10-16 12:49:15Hardstyle510Mauro_Picotto_-_Lizard_(Niels_Van_Gogh_Extended_Remix)-(DIG160516)-SINGLE-WEB-2021-FMC
2021-10-16 12:01:06Hardstyle58Deenis_-_Take_My_Hand-(DMW245)-SINGLE-WEB-2021-FMC
2021-10-16 04:02:06Hardstyle741SveTec_-_In_Your_Soul-(MDM25)-WEB-2021-SRG_iNT
2021-10-15 10:17:23Hardstyle58D-Sturb_-_Wanna_Stay-(EOL159)-SINGLE-WEB-2021-SRG
2021-10-15 01:09:01Hardstyle59Ringleader_-_Justice_Day-(ACTDIG174)-SINGLE-WEB-2021-SRG_iNT
2021-10-15 01:03:01Hardstyle618Primeshock_-_Worldwide-WEB-2021-SRG_iNT
2021-10-15 00:58:43Hardstyle511Retrospect_-_You_Make_Me_Dance-(SSL234)-SINGLE-WEB-2021-SRG
2021-10-15 00:58:16Hardstyle59Phantom_And_Insurgent_-_Revelation-(UPR107)-SINGLE-WEB-2021-SRG
2021-10-15 00:58:08Hardstyle58Griever_-_Gone-(SSR030)-SINGLE-WEB-2021-SRG
2021-10-14 01:51:03Hardstyle58Elyades_-_The_Mystical_Lake-(KNR028)-SINGLE-WEB-2021-SRG
2021-10-14 01:06:10Hardstyle615Rebourne_Ft._Niclas_Lundin_-_Darkness_Disappears-(IAH061)-WEB-2021-SRG_iNT
2021-10-14 01:06:02Hardstyle626Ran-D_Ft._Charlotte_Wessels_-_The_Reawakening_(Qlimax_2021_Anthem)-WEB-2021-SRG_iNT
2021-10-14 00:51:02Hardstyle510Mike_Enemy_Ft._Harrisen_Larner-Main_-_We_Are_The_Aliens-(PRSPX084)-SINGLE-WEB-2021-SRG
2021-10-14 00:50:56Hardstyle59Headhunterz_And_Sephyx_-_Defend_The_Hard-(AOC058)-SINGLE-WEB-2021-SRG
2021-10-13 10:49:45Hardstyle510Releazer_-_Easy_To_Love-(DWX1071)-SINGLE-WEB-2021-SRG
2021-10-13 10:49:40Hardstyle59Amentis_-_First_Attack-(DWX1070)-SINGLE-WEB-2021-SRG
2021-10-13 03:43:16Hardstyle59KELTEK_-_Dark_Sky-(SCANTRAXX380)-SINGLE-WEB-2021-SRG
2021-10-13 03:33:59Hardstyle620TWSTD_And_Zay_B_-_Inspiration-(NEXT113PRO)-WEB-2021-SRG_iNT
2021-10-13 03:33:53Hardstyle616The_Saints_-_Next_Level-(ROUGHR104PRO)-WEB-2021-SRG_iNT
2021-10-12 16:41:35Hardstyle57Regain_And_Fraw_And_Mutilator_-_Smoked-(GBD330)-SINGLE-WEB-2021-SRG
2021-10-12 16:40:58Hardstyle57Regain_And_MC_Renegade_-_Never_Run_Away-(H4H083)-SINGLE-WEB-2021-SRG
2021-10-12 16:40:14Hardstyle621Rejecta_Ft._Nolz_-_Sledgehammer-(ROUGH190PRO)-WEB-2021-SRG
2021-10-12 08:56:32Hardstyle58MeLoX_And_MC_Prime_-_In_The_Shadows-(PRSPX083)-SINGLE-WEB-2021-SRG
2021-10-12 08:56:30Hardstyle58KRB_-_First_Encounter-(AREC070E)-SINGLE-WEB-2021-SRG
2021-10-12 08:56:18Hardstyle59Aria_-_Midnight_Tango-(DWX1069)-SINGLE-WEB-2021-SRG
2021-10-12 08:56:10Hardstyle57Koalaz_-_Move_Ya_Feet-(GBR128)-SINGLE-WEB-2021-SRG
2021-10-12 08:56:01Hardstyle57Crossfight_And_Spectre_-_Reputation-(SCARB050)-SINGLE-WEB-2021-SRG
2021-10-12 08:55:54Hardstyle57Code_Crime_-_FCK_THE_SYSTEM-(UPR106)-SINGLE-WEB-2021-SRG
2021-10-11 12:32:08Hardstyle619Gunz_For_Hire_-_Ongedierte_Van_De_Nacht-(ROUGH193PRO)-WEB-2021-SRG_iNT
2021-10-11 01:11:08Hardstyle619Krabur_-_I_Can_Show_You_The_Light-(CM021)-WEB-2021-SRG_iNT
2021-10-11 01:07:03Hardstyle616Ephoric_-_Enlightenment-(DT177)-WEB-2021-SRG_iNT
2021-10-11 01:06:57Hardstyle618BAQ_-_Mysteries-(FUSION447)-WEB-2021-SRG_iNT
2021-10-10 09:03:12Hardstyle615Afrojack_Feat_Ally_Brooke_-_All_Night_(Zero_Days_Remix)-WEB-2021-FMC
2021-10-08 14:19:16Hardstyle59Refuzion_-_Say_It-(DWX1068)-SINGLE-WEB-2021-SRG
2021-10-08 10:54:59Hardstyle58Scarra_-_Underground_Energy-(APEX035)-SINGLE-WEB-2021-SRG
2021-10-08 10:54:32Hardstyle58Vexxed_-_Deathblow-(UPR105)-SINGLE-WEB-2021-SRG
2021-10-08 10:53:57Hardstyle510Revive_Ft._Madoc_-_Nachtbrakers-(SCARB049)-SINGLE-WEB-2021-SRG
2021-10-08 10:53:56Hardstyle58Radical_Redemption_And_Nolz_-_Break_Shit-(MINUS138)-SINGLE-WEB-2021-SRG
2021-10-08 10:53:55Hardstyle57G_Rated_-_Firepower-(SGR026E)-SINGLE-WEB-2021-SRG
2021-10-08 10:53:36Hardstyle57Avoc_-_Welcome_To_My_World-(RSR060)-SINGLE-WEB-2021-SRG
2021-10-08 04:30:01Hardstyle614Zatox_And_Villain_-_COVID-19_(I_Hate_You)-WEB-2021-SRG_iNT
2021-10-08 04:29:45Hardstyle620Sebastian_Dubois_-_Hard_Times-(BABY090)-WEB-2021-SRG_iNT
2021-10-08 04:29:42Hardstyle511DJ_Dirty_K_-_Tomatonic_(Amkiz_Remix)-(FB20210021)-SINGLE-WEB-2021-SRG_iNT
2021-10-07 14:47:45Hardstyle57TNT_-_Breakdown-(DWX1067)-SINGLE-WEB-2021-FMC
2021-10-07 05:33:12Hardstyle59Volture_-_Devide_Or_Decide-(PRSPX082)-SINGLE-WEB-2021-SRG
2021-10-07 05:33:02Hardstyle58Malice_-_Chasing_My_Dream-(AR019)-SINGLE-WEB-2021-SRG
2021-10-07 05:32:54Hardstyle510Kronos_-_We_Will_Return-(BLACK068)-SINGLE-WEB-2021-SRG
2021-10-07 05:32:42Hardstyle59Aftershock_Ft._Last_Word_-_Stand_As_Kings-(AOC059)-SINGLE-WEB-2021-SRG
2021-10-07 05:20:39Hardstyle619Kokwak_-_Through_The_Snow-(HBR121)-WEB-2021-SRG_iNT
2021-10-07 05:20:30Hardstyle842Delerium_Ft._Sarah_McLachlan_-_Silence_(Brennan_Heart_Remix)-(IAH060)-WEB-2021-SRG_iNT
2021-10-06 11:54:56Hardstyle59Cyber_-_No_Escape_(Jay_Reeve_Remix)-(DWX1063)-SINGLE-WEB-2021-SRG
2021-10-06 11:54:49Hardstyle57Alleviate_-_Anywhere-(DWX1066)-SINGLE-WEB-2021-SRG
2021-10-06 11:54:47Hardstyle59Adverze_And_Blocka_-_Overdose_(Original_Mix)-(SSROZ006)-SINGLE-WEB-2021-SRG
2021-10-06 05:28:02Hardstyle615PLN-B_-_Phat_Beat-(ROUGHR103PRO)-WEB-2021-SRG_iNT
2021-10-05 15:15:09Hardstyle59Luxho_-_Feel_It-(AWK006E)-SINGLE-WEB-2021-SRG
2021-10-05 15:15:03Hardstyle510SL_Complex_-_Giving_In-(PRSPX081)-SINGLE-WEB-2021-SRG
2021-10-05 15:14:57Hardstyle57Sidekick_-_Hatred_Of_Violence-(UPR104)-SINGLE-WEB-2021-SRG
2021-10-04 20:01:16Hardstyle517D-Block_And_S-Te-Fan_-_Ghost_Stories_(JDX_Remix)-(EVO078)-SINGLE-WEB-2021-FMC
2021-10-04 20:01:16Hardstyle510Final_Day_-_Human-(ETY007)-SINGLE-WEB-2021-FMC
2021-10-04 00:23:17Hardstyle510Hard_Driver_And_Nolz_-_Chemical_Reaction-(DWX1065)-SINGLE-WEB-2021-SRG
2021-10-04 00:22:35Hardstyle622Frequencerz_And_Embassy_-_The_Ritual-WEB-2021-SRG_iNT
2021-10-04 00:21:14Hardstyle58Nightcraft_-_Run_No_More-(SCARB048)-SINGLE-WEB-2021-SRG
2021-10-01 10:56:17Hardstyle511Untold_Stories_-_Revelation-(TR072)-SINGLE-WEB-2021-SRG
2021-09-30 20:48:04Hardstyle510Dan-Rider_-_Takin_Off-(TCLABSPRO041)-SINGLE-WEB-2021-FMC
2021-09-30 11:02:03Hardstyle510Dawnfire_-_Close_Your_Eyes-(RSU016)-SINGLE-WEB-2021-SRG
2021-09-30 11:01:56Hardstyle59D-Attack_-_Never_Let_Go-(BLACK067)-SINGLE-WEB-2021-SRG
2021-09-30 11:01:45Hardstyle511Apok_-_Covid_21-(KNR027)-SINGLE-WEB-2021-SRG
2021-09-30 09:20:33Hardstyle59N-Expected_-_Need_You-(PRSPX080)-SINGLE-WEB-2021-FMC
2021-09-30 01:04:22Hardstyle616Xense_Ft._TNYA_-_Stay-(IAHA003)-WEB-2021-SRG_iNT
2021-09-29 11:24:44Hardstyle58Tatsunoshin_-_By_Your_Side-(DWX1064)-SINGLE-WEB-2021-SRG
2021-09-29 11:24:38Hardstyle58Kraken_And_Tomahawkz_-_Secrets-(SSROZ005)-SINGLE-WEB-2021-SRG
2021-09-29 01:07:58Hardstyle618Luner_-_Night_And_Day-(NEXT111PRO)-WEB-2021-SRG_iNT
2021-09-28 09:46:31Hardstyle510Untold_Stories_-_Forget_You-(PRSPX079)-SINGLE-WEB-2021-SRG
2021-09-28 09:46:26Hardstyle58Artimaze_And_Time_Art_-_Numb-(AREC069E)-SINGLE-WEB-2021-SRG
2021-09-28 09:45:32Hardstyle510Prosphere_-_Give_You-(UPR102)-SINGLE-WEB-2021-FMC
2021-09-27 03:14:48Hardstyle59Physika_-_We_Are_The_Universe-(MYM033)-SINGLE-WEB-2021-SRG
2021-09-27 03:14:42Hardstyle56Luminite_-_Dynamite_Soul-(GBD329)-SINGLE-WEB-2021-SRG
2021-09-27 01:13:41Hardstyle618Dopamine_And_Night_Owl_-_Fear_Is_A_Choice-(CM020)-WEB-2021-SRG_iNT
2021-09-27 01:09:12Hardstyle618Manu_And_Rampager_-_Inside-(FUSION446)-WEB-2021-SRG_iNT
2021-09-24 13:24:17Hardstyle57Unwize_-_Never_Let_Go-(UPR101)-SINGLE-WEB-2021-SRG
2021-09-24 13:24:10Hardstyle58Spectre_-_Hustle-(SCARB047)-SINGLE-WEB-2021-SRG
2021-09-24 13:24:03Hardstyle57Ressurectz_-_Love_Yourself-(APEX034)-SINGLE-WEB-2021-SRG
2021-09-24 13:23:56Hardstyle58Psyko_Punkz_-_Embody_Love-(DWX1045)-SINGLE-WEB-2021-SRG
2021-09-24 13:23:38Hardstyle59Blocka_-_Come_With_Me-(SGR025E)-SINGLE-WEB-2021-SRG
2021-09-24 12:37:45Hardstyle58Shamanz_-_Metamorphing-(ACTDIG173)-SINGLE-WEB-2021-SRG_iNT
2021-09-24 12:37:37Hardstyle615D-Royal_-_Gettin_Crunked-(BABY089)-WEB-2021-SRG_iNT
2021-09-24 06:07:49Hardstyle59Sylenth_-_Lies-(WRD007)-SINGLE-WEB-2021-FMC
2021-09-23 20:44:51Hardstyle58Clockartz_And_Sickddellz_-_Starting_A_Fire-(DWX1051)-SINGLE-WEB-2021-SRG
2021-09-23 20:44:38Hardstyle59Avi8_-_Outta_My_Head-(GBE130)-SINGLE-WEB-2021-SRG
2021-09-23 19:46:20Hardstyle614Thyron_-_The_Dome-(IAH058)-WEB-2021-SRG_iNT
2021-09-23 19:46:09Hardstyle57Rewildz_And_Resensed_Ft._Robin_Vane_-_Memories_We_Made-(DWX1062)-SINGLE-WEB-2021-SRG
2021-09-23 19:46:06Hardstyle59Interfearence_And_Soulspeaker_-_The_Carpenter-(RSU015)-SINGLE-WEB-2021-SRG
2021-09-23 19:45:51Hardstyle59Estaloca_-_State_Of_Mind-(PRSPX078)-SINGLE-WEB-2021-SRG
2021-09-22 17:07:34Hardstyle510Blasco_Ft._Otto_Palmborg_-_Where_You_Are-(DWX1061)-SINGLE-WEB-2021-SRG
2021-09-21 13:54:12Hardstyle58JGSW_-_Monster-(ETY006)-SINGLE-WEB-2021-SRG
2021-09-21 13:53:02Hardstyle56Revelation_-_Right_Now-(GBR127)-SINGLE-WEB-2021-SRG
2021-09-21 13:52:41Hardstyle58Imperialite_-_Nerve-(AREC068E)-SINGLE-WEB-2021-SRG
2021-09-21 13:52:40Hardstyle59Genesiz_-_Fall_In_The_Dark-(PRSPX077)-SINGLE-WEB-2021-SRG
2021-09-21 13:52:23Hardstyle57Eternate_-_Believe-(SSL233)-SINGLE-WEB-2021-SRG
2021-09-21 13:52:20Hardstyle512D-Block_And_S-Te-Fan_-_Fearless_(Original_Mix)-(EVO077)-SINGLE-WEB-2021-SRG
2021-09-20 16:33:02Hardstyle59Neroz_-_Lets_Rage-(H4H082)-SINGLE-WEB-2021-SRG
2021-09-20 16:32:51Hardstyle57Kenai_-_Nothing_To_Gain-(i3025)-SINGLE-WEB-2021-SRG
2021-09-20 16:24:02Hardstyle59RAYZEN_-_Rules-(GBD328)-SINGLE-WEB-2021-SRG
2021-09-19 11:05:41Hardstyle46354VA_-_Reverze_2021-Wake_Of_The_Warrior-(TOFF069)-WEB-2021-SRG_iNT
2021-09-17 17:41:17Hardstyle16103VA_-_Charged_Up-(UPR100)-WEB-2021-SRG
2021-09-17 17:41:06Hardstyle58Mark_With_A_K_And_Crystal_Lake_-_My_Crew-(DWX1060)-SINGLE-WEB-2021-SRG
2021-09-17 17:40:55Hardstyle58Divinez_-_Piece_Of_You-(SSL232)-SINGLE-WEB-2021-SRG
2021-09-17 01:33:03Hardstyle512Frontliner_-_Warphole_(Tribute_Mix)-SINGLE-WEB-2021-SRG_iNT
2021-09-17 01:14:29Hardstyle615Sephyx_-_Blackened_Heart_(Obscurus)-WEB-2021-SRG_iNT
2021-09-17 01:14:15Hardstyle59Juandy_Power_-_Can_U_Feel-(LOV110)-SINGLE-WEB-2021-SRG_iNT
2021-09-17 00:34:18Hardstyle513Wasted_Penguinz_-_Sacrifice-(DWX1053)-SINGLE-WEB-2021-SRG
2021-09-17 00:34:09Hardstyle58Mish_-_Into_The_Night-(MYM032)-SINGLE-WEB-2021-SRG
2021-09-16 03:35:20Hardstyle56Wavebreaker_-_Falling-(PRSPX076)-SINGLE-WEB-2021-SRG
2021-09-16 03:35:13Hardstyle56The_Purge_-_Jazzy-(SSR029)-SINGLE-WEB-2021-SRG
2021-09-16 03:35:05Hardstyle57MKN_-_If_I_Told_You-(DWX1059)-SINGLE-WEB-2021-SRG
2021-09-16 03:34:56Hardstyle59Imperatorz_-_Superpowers-(BLACK065)-SINGLE-WEB-2021-SRG
2021-09-16 01:07:58Hardstyle616MI37_And_Killer_Traxx_-_Arms_Of_Heaven-WEB-2021-SRG_iNT
2021-09-15 23:03:31Hardstyle615The_Pitcher_Ft._Sam_LeMay_-_Elevate-(IAH059)-WEB-2021-SRG_iNT
2021-09-15 11:16:16Hardstyle57Adrenalize_-_Epic_Sax_Song-(SCANTRAXX379)-SINGLE-WEB-2021-SRG
2021-09-14 09:50:15Hardstyle56Noctua_-_Crashing_Down-(PRSPX075)-SINGLE-WEB-2021-SRG
2021-09-14 09:49:46Hardstyle512Chronic_Distortion_And_Aerials_-_Dancing_With_The_Light-(AREC067E)-SINGLE-WEB-2021-SRG
2021-09-14 09:49:42Hardstyle59Aria_-_Higher-(DWX1058)-SINGLE-WEB-2021-SRG
2021-09-14 01:06:22Hardstyle618Jordenist_-_Sky_Is_The_Limit-(CM019)-WEB-2021-SRG_iNT
2021-09-13 08:18:35Hardstyle616Zero_Days_-_Forever_In_Your_Arms-(IAHA002)-WEB-2021-SRG_iNT
2021-09-13 08:18:28Hardstyle619Rab-Beat_-_Dont_Leave_Me-(FUSION445)-WEB-2021-SRG_iNT
2021-09-12 19:35:08Hardstyle16114Zany_-_DNA-(SPQ010PRO)-WEB-2019-SRG_iNT
2021-09-11 01:59:58Hardstyle57Vasto_-_Heart_Beating-(APEX033)-SINGLE-WEB-2021-SRG
2021-09-11 01:59:51Hardstyle59Unresolved_-_Punish-(RSR059)-SINGLE-WEB-2021-SRG
2021-09-11 01:59:43Hardstyle59Spitfire_-_The_Power_Of_Fire-(MINUS137)-SINGLE-WEB-2021-SRG
2021-09-11 01:59:34Hardstyle58Sins_Of_Insanity_Ft._Louut_-_Stay_Behind-(SGR024E)-SINGLE-WEB-2021-SRG
2021-09-11 01:59:27Hardstyle58Kloon_-_The_Way-(UPR099)-SINGLE-WEB-2021-SRG
2021-09-11 01:59:09Hardstyle56E-Force_And_Bloodlust_-_Deathblow-(EOL157)-SINGLE-WEB-2021-SRG
2021-09-11 01:58:57Hardstyle58Dexed_And_Luca_Lee_Josh_-_Hunting_Me-(SCARB046)-SINGLE-WEB-2021-SRG
2021-09-11 01:32:32Hardstyle511Miss_N-Traxx_-_The_Last_Resort_(On_Earth)_(Wild_Specs_Remix)-(NR100)-SINGLE-WEB-2021-SRG_iNT
2021-09-11 01:32:21Hardstyle59Kroxy_-_Inner_Fire-(ACTDIG172)-SINGLE-WEB-2021-SRG_iNT
2021-09-10 10:01:16Hardstyle59Primeshock_Feat_Diandra_Faye_-_Addicted_To_The_Night-(DWX1055)-SINGLE-WEB-2021-FMC
2021-09-09 16:11:02Hardstyle512The_Un4given_-_Back_To_You-(GBE129)-SINGLE-WEB-2021-SRG
2021-09-09 16:10:54Hardstyle511TEA5ER_-_Drop_It-(RSU014)-SINGLE-WEB-2021-SRG
2021-09-09 16:10:47Hardstyle59Hayway_-_My_Hell-(DWX1054)-SINGLE-WEB-2021-SRG
2021-09-09 16:10:39Hardstyle57Adjuzt_-_Take_Me_Away-(SSR028)-SINGLE-WEB-2021-SRG
2021-09-09 08:56:12Hardstyle57Evazion_-_Runaway-(PRSPX074)-SINGLE-WEB-2021-FMC
2021-09-09 05:22:22Hardstyle615Rebelion_And_Villain_Ft._Micah_Martin_-_Life_Or_Death-WEB-2021-SRG_iNT
2021-09-09 05:22:13Hardstyle619Brennan_Heart_-_Thunder-(IAH057)-WEB-2021-SRG_iNT
2021-09-07 16:06:44Hardstyle510Volture_Ft._MC_Retell_-_Invasion-(PRSPX073)-SINGLE-WEB-2021-SRG
2021-09-07 16:06:35Hardstyle510Oxya_-_The_Desert-(UNLR016)-SINGLE-WEB-2021-SRG
2021-09-07 16:06:27Hardstyle56LiquidFlux_-_Go_Boom-(GBR126)-SINGLE-WEB-2021-SRG
2021-09-07 16:06:19Hardstyle58Jeroxis_And_Tomsky_-_All_At_Once-(EXPLOUD005)-SINGLE-WEB-2021-SRG
2021-09-07 16:06:11Hardstyle58Firelite_-_Running_In_The_Night-(DWX1052)-SINGLE-WEB-2021-SRG
2021-09-07 16:06:04Hardstyle57Crossfight_And_Rogue_Zero_-_No_Games-(SCARB045)-SINGLE-WEB-2021-SRG
2021-09-07 16:05:56Hardstyle57Arseen_-_Never_Giving_In-(AREC066E)-SINGLE-WEB-2021-SRG
2021-09-07 16:05:48Hardstyle59A-RIZE_Ft._Hicksu_-_Overcome_The_Dark-(ETY005)-SINGLE-WEB-2021-SRG
2021-09-07 14:42:28Hardstyle511Jay_Reeve_And_Solstice_Ft._Mark_Vayne_-_We_Make_Heaven_Bend-(DWX1046)-SINGLE-WEB-2021-SRG
2021-09-07 09:14:53Hardstyle510D-Block_And_S-Te-Fan_-_Promise_Land_(Phuture_Noize_Remix)_(Extended_Mix)-(EVO076)-SINGLE-WEB-2021-FMC
2021-09-06 13:51:25Hardstyle619Xense_-_Dark_Star_(Scabtik_Remix)-(DT114DR)-WEB-2021-SRG_iNT
2021-09-06 13:51:08Hardstyle619Minoz_And_Sanctuary_-_Face_The_Demons-(NEXT110PRO)-WEB-2021-SRG_iNT
2021-09-04 02:30:26Hardstyle57Regain_-_Fuck_It_Up-(H4H081)-SINGLE-WEB-2021-SRG
2021-09-04 02:30:16Hardstyle59Insidiouz_-_No_Mercy-(i3024)-SINGLE-WEB-2021-SRG
2021-09-04 02:18:48Hardstyle510Twisted_Mindz_-_Erase_You-(KDR031)-SINGLE-WEB-2021-SRG
2021-09-04 02:18:39Hardstyle510Rebelnoise_-_Wake_Up-(UPR098)-SINGLE-WEB-2021-SRG
2021-09-04 02:18:15Hardstyle59MickeyG_-_A.C.I.D-(TR071)-SINGLE-WEB-2021-SRG
2021-09-04 02:18:08Hardstyle57Kemikal_-_Society-(SSROZ004)-SINGLE-WEB-2021-SRG
2021-09-03 10:22:09Hardstyle512Refuzion_-_Wake_Of_The_Warrior_(Reverze_Anthem_2021)-(DWX1057)-SINGLE-WEB-2021-FMC
2021-09-03 09:22:07Hardstyle58Voldex_-_Goodbye-(DMW243)-SINGLE-WEB-2021-FMC
2021-09-03 09:21:24Hardstyle56Hypnose_-_Gravity-(SSL231)-SINGLE-WEB-2021-FMC
2021-09-03 01:20:14Hardstyle510Thieves_Of_Dreams_-_Wild_Love-(LOV109)-SINGLE-WEB-2021-SRG_iNT
2021-09-03 01:20:04Hardstyle615The_Pitcher_And_Slim_Shore_Ft._Sam_LeMay_-_This_Is_Who_We_Are_(Power_Hour_Gospel_Edit)-WEB-2021-SRG_iNT